GW2584 Weather Reports


time (UTC)temp
F
wind
direction
speed
knots
gust
knots
rain 1hr
in
rain 24hr
in
rain mn
in
humidity
%
barometer
mb
20260509141558 60 207 0.9 2.6 0.00 0.00 0.00 25 1017.1
20260509140108 56 199 0.0 5.2 0.00 0.00 0.00 32 1017.3
20260509134555 53 183 1.7 5.2 0.00 0.00 0.00 33 1017.2
20260509133054 52 205 2.6 5.2 0.00 0.00 0.00 36 1017.2
20260509131558 52 225 4.3 7.8 0.00 0.00 0.00 37 1017.2
20260509130100 52 189 4.3 8.7 0.00 0.00 0.00 37 1017.0
20260509124559 53 230 1.7 5.2 0.00 0.00 0.00 36 1016.8
20260509123103 53 217 3.5 5.2 0.00 0.00 0.00 35 1016.4
20260509121601 53 212 2.6 7.0 0.00 0.00 0.00 36 1016.2
20260509120057 53 251 3.5 7.0 0.00 0.00 0.00 35 1015.8
20260509114600 52 99 0.9 2.6 0.00 0.00 0.00 37 1015.6
20260509113100 52 0 0.9 2.6 0.00 0.00 0.00 38 1015.4
20260509111559 52 30 1.7 6.1 0.00 0.00 0.00 38 1015.3
20260509110056 52 0 0.0 2.6 0.00 0.00 0.00 38 1015.1
20260509104603 53 120 0.9 4.3 0.00 0.00 0.00 37 1015.3
20260509103106 54 254 0.0 11.3 0.00 0.00 0.00 36 1014.9
20260509101620 54 198 5.2 13.9 0.00 0.00 0.00 35 1014.7
20260509100059 54 203 3.5 8.7 0.00 0.00 0.00 35 1015.1
20260509094602 53 200 0.0 3.5 0.00 0.00 0.00 35 1015.2
20260509093059 54 200 0.9 8.7 0.00 0.00 0.00 35 1015.3
20260509091558 54 0 0.9 7.0 0.00 0.00 0.00 36 1015.1
20260509090105 54 185 2.6 6.1 0.00 0.00 0.00 35 1015.0
20260509084604 53 169 0.9 8.7 0.00 0.00 0.00 36 1014.9
20260509083109 53 266 1.7 4.3 0.00 0.00 0.00 37 1015.0
20260509081557 55 0 0.9 4.3 0.00 0.00 0.00 34 1015.1
20260509080059 55 227 3.5 6.1 0.00 0.00 0.00 33 1015.2
20260509074612 54 229 1.7 4.3 0.00 0.00 0.00 35 1015.3
20260509073107 54 0 0.0 5.2 0.00 0.00 0.00 35 1015.3
20260509071603 54 217 0.9 6.1 0.00 0.00 0.00 35 1015.5
20260509070106 54 221 0.9 7.0 0.00 0.00 0.00 37 1015.5
20260509064601 53 235 0.9 3.5 0.00 0.00 0.00 36 1015.5
20260509063102 52 250 0.0 2.6 0.00 0.00 0.00 43 1015.7
20260509061556 52 0 0.0 2.6 0.00 0.00 0.00 41 1015.6
20260509060112 51 221 0.0 4.3 0.00 0.00 0.00 49 1015.8
20260509054557 52 0 0.0 3.5 0.00 0.00 0.00 51 1016.0
20260509053116 52 249 3.5 6.1 0.00 0.00 0.00 51 1016.1
20260509051609 50 241 0.0 2.6 0.00 0.00 0.00 60 1016.4
20260509044559 50 0 0.9 3.5 0.00 0.00 0.00 59 1016.7
20260509043100 51 0 0.0 3.5 0.00 0.00 0.00 59 1017.0
20260509041556 51 0 0.0 2.6 0.00 0.00 0.00 58 1017.1
20260509040108 52 265 0.9 1.7 0.00 0.00 0.00 56 1017.4
20260509034555 53 239 1.7 4.3 0.00 0.00 0.00 55 1017.4
20260509033128 55 0 0.0 4.3 0.00 0.00 0.00 51 1017.5
20260509031555 54 205 0.9 3.5 0.00 0.00 0.00 51 1017.6
20260509030059 54 186 2.6 4.3 0.00 0.00 0.00 51 1017.5
20260509024606 54 202 0.9 2.6 0.00 0.00 0.00 51 1017.4
20260509023054 54 203 1.7 3.5 0.00 0.00 0.00 52 1017.3
20260509021557 54 0 0.0 0.9 0.00 0.00 0.00 51 1017.2
20260509020110 55 0 0.0 0.9 0.00 0.00 0.00 50 1017.1
20260509014557 56 224 0.0 0.9 0.00 0.00 0.00 49 1016.9
20260509013100 57 0 0.9 3.5 0.00 0.00 0.00 48 1016.9
20260509011604 57 123 0.9 5.2 0.00 0.00 0.00 47 1016.8
20260509010100 57 109 0.9 4.3 0.00 0.00 0.00 47 1016.7
20260509004555 58 86 1.7 7.8 0.00 0.00 0.00 46 1016.5
20260509003059 59 48 2.6 5.2 0.00 0.00 0.00 45 1016.6
20260509001556 59 45 0.0 7.0 0.00 0.00 0.00 45 1016.6
20260509000055 59 58 1.7 7.8 0.00 0.00 0.00 45 1016.6
20260508234603 60 0 0.0 6.1 0.00 0.00 0.00 44 1016.6
20260508233104 60 330 1.7 7.0 0.00 0.00 0.00 44 1016.4
20260508231600 61 55 1.7 5.2 0.00 0.00 0.00 44 1016.5
20260508230057 61 34 1.7 4.3 0.00 0.00 0.00 43 1016.6
20260508224556 61 92 4.3 10.4 0.00 0.00 0.00 43 1016.5
20260508223055 61 4 0.9 6.1 0.00 0.00 0.00 44 1016.5
20260508221558 60 284 3.5 7.8 0.00 0.00 0.00 45 1016.6
20260508220056 60 0 2.6 9.6 0.00 0.00 0.00 45 1016.7
20260508214556 60 35 2.6 10.4 0.00 0.00 0.00 46 1016.8
20260508213058 60 295 1.7 9.6 0.00 0.00 0.00 45 1016.9
20260508211557 60 112 3.5 13.0 0.00 0.00 0.00 45 1016.9
20260508210100 60 32 3.5 8.7 0.00 0.00 0.00 48 1017.1
20260508204558 60 96 4.3 7.8 0.00 0.00 0.00 49 1017.1
20260508203101 60 16 3.5 9.6 0.00 0.00 0.00 48 1017.2
20260508201558 59 4 5.2 10.4 0.00 0.00 0.00 50 1017.2
20260508200113 58 51 6.1 12.2 0.00 0.00 0.00 50 1017.4
20260508194607 58 43 3.5 12.2 0.00 0.00 0.00 52 1017.6
20260508193119 58 104 3.5 8.7 0.00 0.00 0.00 50 1017.6
20260508191607 57 22 3.5 8.7 0.00 0.00 0.00 52 1017.7
20260508190114 55 2 3.5 11.3 0.00 0.00 0.00 54 1017.8
20260508184601 56 93 2.6 7.8 0.00 0.00 0.00 54 1018.0
20260508183100 56 15 4.3 10.4 0.00 0.00 0.00 53 1018.1
20260508181603 55 99 3.5 7.8 0.00 0.00 0.00 57 1018.2
20260508180106 55 18 1.7 9.6 0.00 0.00 0.00 54 1018.5
20260508174556 54 67 3.5 7.8 0.00 0.00 0.00 56 1018.5
20260508173056 53 344 1.7 7.8 0.00 0.00 0.00 56 1018.6
20260508171557 54 113 1.7 7.8 0.00 0.00 0.00 58 1018.6
20260508170100 55 153 1.7 7.8 0.00 0.00 0.00 58 1018.6
20260508164554 54 14 3.5 7.0 0.00 0.03 0.00 59 1018.6
20260508163106 54 39 2.6 7.0 0.00 0.03 0.00 57 1018.4
20260508161559 54 31 1.7 7.0 0.00 0.03 0.00 55 1018.4
20260508160056 54 224 0.9 7.8 0.00 0.03 0.00 52 1018.3
20260508154559 54 6 0.9 7.0 0.00 0.11 0.00 60 1018.4
20260508153107 54 12 2.6 6.1 0.00 0.11 0.00 56 1018.3
20260508151557 57 13 1.7 6.1 0.00 0.11 0.00 40 1018.1
20260508150056 56 34 0.9 3.5 0.00 0.11 0.00 47 1018.1
20260508144557 53 154 0.0 1.7 0.00 0.27 0.00 55 1018.1
20260508143116 50 187 0.9 2.6 0.00 0.27 0.00 62 1018.5